Location: Tamazert
(32.6352°N, 5.2072°W)
Time: 05:16:57
(UTC+00:00)

Vanguard 2 - Pass Details

Date: 07 October 2022
Orbit: 553 x 2933 km, 32.9° (Epoch: 26 November)

Event Time Altitude Azimuth Distance (km) Brightness Sun altitude
Rises 13:58:41 0° 269° (W) 4,590 11.9 43.7°
Reaches altitude 10° 14:01:15 10° 270° (W) 3,872 11.7 43.3°
Maximum altitude 14:12:17 89° 360° (N) 2,282 10.6 41.8°
Drops below altitude 10° 14:29:24 10° 93° (E) 5,689 11.7 39.2°
Sets 14:34:04 0° 94° (E) 6,778 12.0 38.5°
